Temperature
20 20 19 19 19 19 18 18 18 18 18 18 18 18 17 17 17 17 17 17 17 17 17 17 17 17 16 16 16 16 16 16 16 16 16 16 15 15 15 15 15 15 15
20 20 19 19 19 18 18 18 18 18 18 18 18 18 17 17 17 17 17 17 17 17 17 16 17 16 16 16 16 16 16 16 16 16 16 15 15 15 15 15 15 15 15
20 20 19 19 19 18 18 18 18 18 18 18 17 17 17 17 17 17 17 17 17 17 16 16 16 16 16 16 16 16 16 16 16 16 16 15 15 15 15 15 15 15 15
20 20 19 19 19 18 18 18 18 18 18 17 17 17 17 17 17 17 17 16 16 16 16 16 16 16 16 16 16 16 16 16 16 15 15 15 15 15 15 15 15 15 14
20 19 19 19 18 18 18 18 18 17 17 17 17 17 17 17 17 17 17 16 16 16 16 16 16 16 16 16 16 16 15 15 15 15 15 15 15 15 15 14 14 14 14
20 19 19 18 18 18 18 18 18 17 17 17 17 17 17 17 17 17 17 16 16 16 16 16 16 15 15 15 15 15 15 15 15 15 15 15 15 15 14 14 14 14 14
20 19 19 18 18 18 18 17 17 17 17 17 17 17 17 17 17 17 16 16 16 16 16 16 15 15 15 15 15 15 15 15 15 14 14 14 14 14 14 14 14 14 14
19 19 19 18 18 18 17 17 17 17 17 17 17 17 17 17 17 17 16 16 16 16 16 15 15 15 15 15 15 15 15 15 14 14 14 14 14 14 14 14 14 14 14
19 19 18 18 18 18 17 17 17 17 17 17 17 17 17 17 16 16 16 16 16 16 16 15 15 15 15 15 15 15 15 15 14 14 14 14 14 14 14 14 14 13 13
19 19 18 18 18 18 17 17 17 17 17 17 17 17 16 17 16 16 16 16 16 16 16 15 15 15 15 15 15 15 15 15 14 14 14 14 14 14 14 14 13 13 13
19 18 18 18 18 18 17 17 17 16 16 16 17 16 16 16 16 16 16 16 16 16 15 15 15 15 15 15 15 15 15 14 14 14 14 14 14 14 14 13 13 13 13
18 18 18 18 18 17 17 17 16 16 16 16 16 16 16 16 16 16 16 16 16 15 15 15 15 15 15 15 14 14 14 14 14 14 14 14 14 14 13 13 13 13 13
18 18 18 17 17 17 17 17 16 16 16 16 16 16 16 16 16 16 16 16 15 15 15 15 15 14 14 14 14 14 14 14 14 13 13 14 14 13 13 13 13 12 12
18 17 17 17 17 17 16 16 16 16 16 16 15 15 16 16 16 16 16 16 15 15 14 14 14 14 14 14 14 14 14 13 13 13 13 13 13 13 13 13 13 12 12
17 17 17 17 17 16 16 16 16 16 16 15 15 15 15 15 15 15 15 15 15 15 14 14 14 14 14 14 14 14 13 13 13 13 13 13 13 13 13 12 12 12 12
17 17 16 16 16 16 16 16 16 15 15 15 15 15 15 15 15 15 15 15 14 14 14 14 14 14 14 14 13 13 13 13 13 13 13 13 13 12 12 12 12 12 12
17 16 16 16 16 16 16 16 15 15 15 15 15 15 15 15 15 14 14 14 14 14 14 14 13 13 13 13 13 13 13 13 13 13 13 13 12 12 12 12 12 11 11
16 16 15 15 15 15 15 15 15 15 15 15 15 15 15 14 14 14 14 14 14 13 13 13 13 13 13 13 13 13 13 12 12 12 12 12 12 12 12 11 11 11 11
15 15 15 15 15 15 15 15 14 14 14 14 14 14 14 14 14 14 14 13 13 13 13 13 13 13 13 13 13 12 12 12 12 12 12 12 12 11 11 11 11 11 10
15 15 15 14 14 14 14 14 14 14 14 14 14 14 14 14 14 14 14 14 14 13 13 13 13 13 13 12 12 12 12 12 12 11 11 11 11 11 11 11 11 10 10
14 14 14 14 14 14 14 14 13 13 13 14 14 14 14 14 14 14 14 13 13 13 13 13 13 13 12 12 12 12 12 12 12 11 11 11 11 10 10 10 10 10 10
14 14 14 14 14 14 14 13 13 13 13 13 13 13 13 13 13 13 13 13 13 13 13 13 13 12 12 12 12 12 12 11 11 11 11 11 10 10 10 10 10 10 9
14 14 13 13 13 13 13 13 13 13 13 13 13 13 13 13 13 13 13 13 13 13 13 12 12 12 12 12 11 11 11 11 11 11 11 10 10 10 10 10 9 9 9
13 13 13 13 13 13 13 13 13 13 13 13 13 13 13 13 13 13 13 12 12 12 12 12 12 12 12 11 11 11 11 11 11 10 10 10 10 9 9 9 9 9 9
13 13 13 13 13 13 13 13 13 13 13 13 13 13 12 12 12 12 12 12 12 12 12 12 12 11 11 11 11 11 11 11 10 10 10 10 9 9 9 9 9 9 8
13 13 13 13 13 13 13 12 12 12 12 12 12 12 12 12 12 12 12 12 12 11 11 11 11 11 11 11 11 11 11 10 10 10 10 9 9 9 9 9 8 8 8
Wind_Speed
5 4 4 3 3 3 3 2 2 2 3 3 2 3 2 2 2 2 2 2 3 2 1 2 1 1 1 1 1 1 1 2 2 1 1 1 0 0 1 0 1 2 2
5 4 4 3 3 3 3 2 2 3 3 3 3 3 2 2 2 3 2 2 3 2 1 2 1 1 1 1 1 1 1 2 2 2 1 0 0 0 1 1 1 1 2
6 5 4 4 4 4 3 3 2 3 2 2 3 3 2 2 2 2 3 2 2 2 2 2 1 2 1 1 1 1 1 1 2 2 1 0 0 1 1 1 1 1 1
6 6 5 4 4 4 4 3 3 3 2 2 2 2 2 2 2 2 3 3 2 2 1 1 1 2 2 2 1 1 1 1 1 2 1 0 0 1 1 0 1 1 1
6 6 5 4 4 4 4 3 3 3 3 3 2 2 2 2 2 3 3 3 3 2 1 1 1 2 2 2 2 2 2 2 2 1 1 1 0 0 1 1 1 1 1
6 6 5 5 4 4 4 4 3 3 3 3 3 3 2 2 3 5 5 3 3 2 2 1 1 1 1 2 2 3 3 3 3 2 1 2 3 2 1 1 1 1 2
6 6 5 6 5 4 4 4 4 4 3 3 3 2 2 2 4 5 5 4 4 3 3 2 1 0 1 1 1 1 1 2 4 3 3 3 3 3 3 2 2 2 2
7 6 6 5 5 4 4 4 4 3 3 3 3 3 3 3 4 5 5 4 3 3 3 3 2 1 1 2 1 1 1 2 3 3 4 4 4 3 4 3 3 2 2
7 7 6 6 5 5 5 5 4 4 4 4 3 4 4 4 5 6 5 3 3 3 3 3 3 3 3 4 3 2 2 2 2 3 4 4 3 3 4 2 2 1 2
8 7 7 7 7 6 6 4 3 4 4 4 4 4 5 5 6 7 7 4 3 3 2 3 4 4 4 5 4 4 3 3 2 1 1 2 2 2 4 4 4 3 2
7 6 6 6 7 7 5 4 3 3 3 3 4 4 4 5 6 7 8 5 5 4 3 3 3 5 6 6 5 4 5 3 2 2 1 2 2 1 2 3 4 4 4
6 6 6 6 6 5 5 4 4 4 3 3 3 3 3 4 5 6 9 8 7 5 5 4 4 4 5 5 4 4 4 2 1 1 1 2 2 3 3 3 4 5 6
6 6 5 5 5 5 6 5 4 4 4 3 4 4 4 3 3 5 6 7 8 5 4 5 4 4 4 4 4 4 3 2 2 2 3 3 3 3 2 2 2 3 4
5 5 5 5 4 4 4 5 4 4 4 4 5 5 4 4 4 3 3 4 5 4 3 3 3 3 3 3 3 3 3 3 4 4 4 3 2 2 2 2 2 2 2
4 4 4 4 4 4 4 4 5 5 6 6 6 6 6 6 7 8 5 4 4 4 3 2 2 2 2 3 3 3 3 3 4 4 3 3 2 2 2 2 2 2 2
4 4 4 4 4 4 4 3 3 5 6 8 8 7 7 8 7 8 9 8 7 7 5 3 4 4 5 4 4 4 3 4 4 4 4 4 4 3 3 2 2 2 3
5 5 4 4 4 4 4 4 3 3 4 6 7 8 8 7 7 8 8 7 6 8 4 5 5 5 5 5 5 5 4 4 4 4 5 4 4 3 3 3 2 3 3
5 6 6 5 4 4 5 5 4 4 4 4 4 6 7 7 7 7 7 6 3 5 5 6 6 6 5 5 5 5 5 4 3 4 4 4 3 3 3 3 3 4 4
5 4 5 4 4 4 4 4 4 5 4 4 2 3 4 4 4 5 7 4 6 6 6 6 6 6 6 6 5 5 5 4 4 4 4 3 3 3 4 4 4 4 4
4 6 5 4 4 4 4 4 5 5 4 4 4 4 2 2 2 3 5 5 6 6 6 6 6 6 6 5 5 5 5 4 4 4 4 4 3 3 4 4 4 4 4
4 4 5 4 4 5 5 5 5 5 5 5 5 5 6 5 5 5 5 6 6 7 6 6 6 6 5 5 5 5 6 5 5 5 4 4 4 4 4 4 4 4 4
3 3 3 4 4 4 5 5 5 5 6 6 4 4 7 5 5 5 5 6 6 6 6 5 5 5 5 5 5 6 6 6 5 5 5 4 4 4 4 4 3 4 4
4 4 3 3 4 5 5 5 5 5 6 6 5 4 4 5 5 5 5 5 5 5 5 5 5 5 5 5 6 6 6 6 6 6 5 5 4 4 4 4 5 5 5
4 4 4 4 4 4 5 5 5 5 6 6 5 5 5 5 5 5 5 4 4 4 4 5 5 7 7 6 6 6 7 7 6 6 7 6 5 4 4 4 5 5 5
4 5 5 5 5 4 5 5 5 5 5 5 5 5 4 4 4 4 4 3 4 4 5 5 4 5 6 7 6 6 6 7 7 6 6 5 6 5 5 5 4 4 4
4 4 4 4 4 4 5 5 5 5 4 4 4 4 4 4 4 4 3 3 3 3 4 3 3 4 4 5 6 5 5 6 6 6 5 4 5 4 4 4 5 4 4
Wind_Direction
179 179 168 166 156 145 149 164 167 163 160 152 145 131 123 120 117 116 119 119 119 111 104 119 109 98 103 108 118 141 160 165 198 266 277 292 199 350 3 223 232 235 238
176 170 165 154 140 143 158 170 160 156 156 153 143 134 137 135 131 136 139 129 134 135 126 119 121 116 105 120 138 149 167 181 184 215 267 307 259 325 319 305 298 264 246
167 166 160 160 159 164 168 164 153 152 148 146 148 151 157 151 142 150 142 136 137 141 140 146 160 141 148 166 157 150 172 158 171 178 199 163 353 27 45 5 357 326 298
165 165 168 179 180 179 175 168 163 156 157 169 169 173 176 166 153 152 146 145 141 131 133 148 163 165 179 186 175 175 162 139 141 153 154 146 278 328 82 23 346 352 326
165 170 180 184 175 172 175 177 172 169 180 181 174 179 178 170 173 165 162 157 150 143 133 156 169 163 168 176 179 183 169 166 154 152 176 157 219 239 241 217 259 314 302
164 172 171 168 167 177 183 181 176 183 187 176 184 186 185 199 174 164 161 159 160 164 173 201 198 182 185 182 172 172 174 175 181 180 202 223 242 226 213 210 220 265 288
172 173 171 169 170 181 183 180 190 197 192 191 198 188 195 201 178 175 174 172 176 183 186 194 213 229 150 175 156 146 195 206 193 192 213 232 238 225 196 206 218 226 250
173 177 177 173 176 178 179 190 199 196 195 200 205 206 205 215 190 183 180 186 192 202 205 203 201 221 215 183 181 196 239 247 227 217 226 241 244 227 209 208 215 233 272
184 185 184 177 177 180 194 202 201 195 204 207 202 203 212 230 208 189 174 181 198 219 223 217 212 222 225 187 179 207 255 282 258 231 233 245 252 226 186 166 181 200 271
195 191 185 181 182 191 201 205 204 200 208 206 210 213 212 221 212 193 178 185 203 224 233 234 223 221 217 184 182 194 227 257 266 277 277 291 274 243 202 200 204 214 243
189 183 185 188 190 194 193 196 193 198 202 208 215 224 221 222 215 199 184 189 203 212 223 233 239 219 210 201 192 206 225 226 234 249 278 296 296 278 249 227 216 211 222
175 183 189 192 193 190 187 195 190 189 206 222 224 237 237 230 219 208 194 197 198 207 221 230 236 217 206 205 206 219 215 198 214 236 266 280 280 277 269 253 238 233 234
171 186 193 196 192 185 186 193 198 194 209 227 228 233 242 237 230 218 207 203 201 208 224 221 219 207 200 212 223 216 204 202 208 231 253 265 266 271 277 272 264 253 260
176 186 186 189 194 191 194 195 199 204 211 224 230 232 234 233 230 220 212 209 205 209 221 218 212 205 203 221 230 224 215 213 214 232 248 260 271 272 266 258 261 269 279
175 185 187 191 196 202 211 211 213 222 216 217 228 225 222 233 234 215 204 210 207 205 188 192 207 215 226 239 244 243 231 222 228 236 242 251 255 259 263 253 233 234 250
181 196 202 201 202 207 210 234 240 233 239 233 232 227 232 234 225 208 210 211 201 177 168 200 216 221 226 233 240 245 238 231 230 230 233 238 243 249 258 257 237 241 254
188 200 210 210 205 209 209 207 234 257 242 237 235 234 234 231 223 211 203 198 190 169 187 214 222 227 230 233 233 234 237 238 232 227 230 233 237 243 246 250 247 247 259
198 204 208 211 209 212 219 220 218 222 243 262 255 239 235 231 226 215 190 162 184 195 216 224 229 230 232 233 233 234 238 239 233 234 233 229 228 233 239 245 247 251 259
212 215 209 208 211 216 223 226 224 224 232 245 261 267 241 227 223 213 180 201 218 222 224 228 229 228 230 231 233 232 230 230 233 235 240 236 229 227 238 245 249 252 252
218 217 209 205 209 211 217 225 226 229 236 239 240 241 210 173 209 215 211 221 227 232 229 229 230 229 228 224 222 223 228 231 230 231 237 238 234 227 235 243 244 247 250
215 211 206 209 215 216 217 223 224 226 235 241 244 231 200 209 220 223 223 226 230 235 234 233 233 231 228 223 219 220 224 228 226 227 229 233 236 234 234 236 240 244 252
212 219 219 221 221 223 224 225 225 229 235 240 249 242 215 222 227 228 232 237 237 235 233 230 233 232 229 226 222 222 225 228 228 227 229 230 231 233 234 236 240 247 251
208 215 225 233 229 228 233 233 231 234 238 239 238 236 230 233 235 234 238 242 240 238 233 227 230 237 235 228 224 221 223 228 227 221 221 226 231 233 230 235 238 244 246
215 220 227 233 233 232 234 240 239 239 241 239 235 230 228 231 237 241 243 242 237 237 232 225 227 232 231 226 227 226 227 228 224 222 221 223 227 235 232 234 237 239 243
220 224 230 233 234 235 234 235 236 236 237 238 235 234 230 229 237 243 241 236 233 233 233 228 227 233 233 227 227 228 225 217 217 219 219 220 226 229 232 234 235 237 236
222 229 233 235 232 230 231 233 236 237 235 237 235 232 229 226 231 237 237 232 232 230 233 232 228 227 224 223 225 216 208 208 209 211 212 215 219 226 230 235 235 234 235
Height
1523 1525 1526 1527 1528 1529 1530 1531 1532 1533 1533 1534 1534 1534 1535 1535 1535 1536 1536 1537 1537 1537 1538 1538 1538 1538 1538 1538 1538 1538 1538 1539 1538 1538 1538 1538 1538 1538 1538 1538 1538 1538 1538
1522 1524 1524 1526 1527 1528 1529 1530 1531 1532 1532 1533 1533 1533 1534 1534 1534 1535 1535 1536 1536 1536 1536 1537 1537 1537 1537 1537 1537 1537 1537 1537 1537 1536 1536 1536 1536 1536 1536 1536 1536 1536 1536
1520 1522 1523 1524 1525 1527 1528 1529 1530 1531 1531 1532 1532 1532 1533 1533 1534 1534 1534 1535 1535 1535 1535 1535 1536 1536 1536 1536 1536 1536 1536 1535 1535 1535 1535 1535 1535 1534 1534 1535 1534 1534 1534
1518 1520 1521 1522 1524 1525 1527 1528 1528 1529 1530 1530 1531 1531 1531 1532 1532 1533 1533 1533 1534 1534 1534 1534 1535 1535 1535 1535 1535 1535 1534 1534 1534 1533 1533 1533 1533 1533 1533 1532 1532 1532 1532
1516 1517 1519 1521 1522 1523 1524 1526 1527 1527 1528 1529 1529 1530 1530 1530 1531 1532 1532 1532 1532 1533 1533 1533 1533 1534 1534 1533 1533 1533 1533 1532 1532 1532 1532 1532 1532 1531 1531 1530 1530 1530 1530
1514 1516 1517 1519 1520 1521 1522 1523 1524 1525 1526 1527 1527 1528 1529 1529 1530 1530 1531 1531 1531 1531 1531 1532 1532 1532 1532 1532 1532 1532 1531 1531 1531 1530 1530 1530 1530 1530 1529 1529 1528 1528 1527
1511 1513 1515 1516 1517 1518 1520 1521 1522 1523 1524 1525 1525 1526 1527 1527 1528 1529 1529 1529 1530 1530 1530 1530 1530 1530 1530 1530 1530 1530 1530 1529 1530 1529 1529 1528 1528 1528 1528 1527 1527 1526 1525
1508 1510 1512 1513 1514 1516 1517 1518 1519 1521 1521 1522 1523 1524 1524 1525 1526 1527 1527 1527 1527 1528 1528 1528 1528 1528 1528 1528 1528 1528 1528 1528 1528 1527 1527 1526 1526 1526 1525 1525 1524 1523 1523
1505 1507 1509 1510 1511 1513 1514 1515 1517 1518 1519 1520 1521 1521 1522 1523 1523 1524 1525 1525 1525 1525 1525 1525 1525 1526 1526 1526 1526 1525 1525 1525 1526 1525 1525 1524 1523 1523 1522 1522 1521 1520 1519
1502 1504 1506 1507 1508 1510 1511 1513 1515 1516 1516 1517 1518 1519 1519 1520 1520 1521 1521 1522 1522 1522 1522 1522 1523 1523 1523 1523 1523 1523 1522 1523 1523 1522 1522 1521 1521 1520 1519 1518 1518 1517 1516
1499 1501 1503 1504 1506 1507 1509 1510 1511 1512 1513 1514 1515 1515 1516 1516 1517 1517 1518 1518 1518 1518 1519 1519 1519 1519 1520 1520 1520 1520 1520 1520 1520 1519 1519 1518 1517 1517 1516 1515 1514 1514 1513
1497 1498 1499 1501 1503 1504 1505 1507 1508 1509 1509 1510 1511 1511 1512 1512 1513 1513 1514 1514 1515 1515 1515 1515 1516 1516 1516 1516 1516 1516 1516 1516 1516 1516 1515 1514 1514 1513 1513 1512 1511 1510 1509
1494 1495 1497 1498 1499 1501 1502 1503 1504 1505 1505 1506 1507 1507 1508 1508 1509 1509 1510 1510 1511 1511 1511 1511 1512 1512 1512 1512 1513 1513 1513 1512 1512 1512 1511 1511 1510 1510 1509 1509 1508 1507 1506
1491 1493 1494 1495 1496 1497 1499 1499 1500 1500 1501 1502 1503 1503 1503 1504 1504 1505 1506 1506 1506 1507 1507 1507 1508 1508 1508 1508 1508 1508 1508 1508 1508 1508 1507 1507 1506 1506 1505 1504 1504 1503 1502
1488 1489 1491 1492 1493 1494 1495 1496 1496 1497 1497 1499 1499 1500 1500 1500 1500 1501 1502 1502 1502 1502 1503 1503 1503 1504 1504 1503 1503 1504 1504 1504 1504 1503 1503 1503 1502 1502 1501 1500 1500 1499 1498
1485 1486 1488 1488 1489 1491 1491 1492 1492 1493 1494 1495 1496 1496 1496 1497 1497 1497 1497 1498 1498 1498 1498 1498 1499 1499 1499 1499 1499 1499 1499 1499 1499 1499 1499 1498 1498 1497 1497 1496 1496 1495 1494
1481 1483 1484 1485 1485 1486 1487 1487 1487 1489 1490 1491 1491 1491 1492 1492 1492 1492 1493 1493 1494 1494 1493 1494 1494 1495 1495 1495 1495 1495 1495 1495 1495 1494 1494 1494 1494 1493 1493 1492 1491 1491 1490
1478 1479 1480 1480 1480 1481 1483 1483 1484 1484 1484 1485 1486 1487 1487 1487 1488 1488 1488 1489 1488 1488 1489 1489 1490 1490 1490 1490 1490 1491 1490 1491 1491 1490 1490 1489 1489 1489 1488 1488 1487 1487 1486
1475 1475 1475 1475 1476 1477 1478 1479 1480 1480 1480 1481 1481 1482 1482 1483 1483 1484 1484 1484 1484 1484 1484 1484 1485 1485 1486 1486 1486 1486 1486 1486 1486 1486 1486 1485 1485 1484 1484 1483 1483 1482 1482
1471 1471 1471 1471 1472 1472 1474 1475 1475 1476 1476 1476 1476 1477 1478 1478 1478 1478 1479 1479 1479 1479 1479 1480 1480 1481 1481 1481 1481 1481 1481 1481 1481 1481 1481 1481 1481 1480 1479 1479 1479 1478 1478
1467 1467 1467 1468 1468 1468 1469 1470 1470 1471 1471 1471 1472 1473 1474 1474 1474 1474 1474 1474 1474 1474 1474 1475 1475 1475 1476 1476 1476 1476 1476 1476 1476 1476 1476 1476 1476 1476 1475 1475 1475 1474 1474
1462 1463 1463 1463 1464 1464 1465 1465 1466 1466 1467 1467 1468 1468 1469 1469 1469 1469 1469 1469 1469 1469 1469 1470 1470 1470 1470 1470 1471 1471 1471 1471 1471 1472 1472 1472 1472 1471 1471 1471 1470 1470 1470
1459 1459 1459 1460 1460 1460 1460 1461 1461 1462 1462 1463 1463 1463 1464 1464 1464 1464 1463 1463 1463 1463 1464 1464 1464 1464 1464 1465 1465 1466 1466 1466 1466 1467 1467 1467 1467 1467 1467 1466 1466 1465 1465
1455 1455 1455 1455 1455 1455 1455 1456 1457 1457 1458 1458 1458 1458 1458 1458 1458 1458 1458 1458 1458 1458 1459 1458 1458 1459 1459 1459 1460 1460 1460 1461 1461 1461 1462 1462 1462 1462 1462 1461 1461 1461 1461
1450 1450 1450 1451 1451 1451 1451 1452 1452 1453 1453 1453 1453 1453 1453 1453 1453 1453 1453 1453 1453 1453 1454 1453 1453 1454 1454 1454 1454 1454 1455 1455 1456 1456 1456 1456 1457 1457 1457 1456 1456 1456 1456
1446 1446 1446 1446 1446 1447 1447 1447 1448 1448 1448 1448 1448 1449 1449 1449 1448 1448 1448 1448 1448 1449 1449 1449 1449 1449 1449 1449 1449 1449 1449 1450 1450 1450 1451 1451 1451 1451 1451 1452 1452 1452 1452